Location: Aulnoy
(48.8410°N, 3.0967°E)
Time: 14:45:47
(UTC+00:00)

CZ-4 R/B - Pass Details

Date: 09 February 2023
Orbit: 526 x 587 km, 97.7° (Epoch: 26 March)

Event Time Altitude Azimuth Distance (km) Brightness Sun altitude
Rises 19:26:20 0° 187° (S) 2,780 4.9 -24.8°
Reaches altitude 10° 19:28:39 10° 197° (SSW) 1,878 4.1 -25.1°
Maximum altitude 19:32:22 34° 263° (W) 946 3.0 -25.8°
Drops below altitude 10° 19:36:03 10° 329° (NNW) 1,858 4.5 -26.4°
Sets 19:38:20 0° 339° (NNW) 2,748 5.3 -26.7°
